Regional Weather Roundup
Issued by NWS Sterling, VA

Home | Current Version | Previous Version | Graphics & Text | Print | Product List | Glossary On
Versions: 1 2 3 4 5 6 7 8 9 10 11 12 13 14 15 16 17 18 19 20 21 22 23 24 25 26 27
000
ASUS41 KLWX 161410
RWRLWX

REGIONAL WEATHER ROUNDUP
NATIONAL WEATHER SERVICE BALTIMORE MD/WASHINGTON DC
900 AM EST MON JAN 16 2017

Note: "FAIR" indicates few or no clouds below 12,000 feet
with no significant weather and/or obstructions to visibility.
 TC=TEMPERATURE CELSIUS

 * =Non NWS site. Station does not report precipitation (e.g. rain,
    snow, etc.), thunder, or fog.

DCZ001-MDZ009-015-VAZ040>042-051-053>054-161500-
WASHINGTON METRO

CITY           SKY/WX    TMP DP  RH WIND       PRES   REMARKS
WASHINGTON NAT CLOUDY    39  29  67 NE3       30.49R
DULLES         CLOUDY    38  27  64 SE3       30.46R
ANDREWS AFB    CLOUDY    37  28  70 CALM      30.46R
FT BELVOIR     CLOUDY    39  28  64 SE3       30.48R
QUANTICO       CLOUDY    40  34  79 CALM      30.49R
COLLEGE PARK*  CLOUDY    36  28  75 CALM      30.48S
LEESBURG*      CLOUDY    37  30  75 MISG      30.46S
MANASSAS*      CLOUDY   N/A N/A N/A SE6       30.47R
GAITHERSBURG*  CLOUDY    36  21  55 CALM      30.50R

$$

MDZ006>007-011-014-161500-
BALTIMORE METRO

CITY           SKY/WX    TMP DP  RH WIND       PRES   REMARKS
BWI AIRPORT    CLOUDY    34  26  72 E3        30.48R
MD SCIENCE CTR   N/A     36  23  59 MISG      30.50R
MARTIN STATE   PTSUNNY   34  27  75 CALM      30.51R
ANNAPOLIS      CLOUDY    37  26  64 E5        30.48R
FORT MEADE*    CLOUDY    34  28  80 CALM      30.50S

$$

MDZ012-015-019>023-161500-
MARYLAND EASTERN SHORE

CITY           SKY/WX    TMP DP  RH WIND       PRES   REMARKS
OCEAN CITY     MOSUNNY   38  32  79 N3        30.49R
SALISBURY      CLOUDY    35  27  72 NE5       30.48R
BAY BRIDGE AP* CLOUDY    36  25  64 MISG      30.49R
CAMBRIDGE*     CLOUDY    34  28  80 CALM      30.49R
EASTON*        CLOUDY    36  27  69 MISG      30.52R

$$

MDZ017>025-161500-
SOUTHERN MARYLAND

CITY           SKY/WX    TMP DP  RH WIND       PRES   REMARKS
PATUXENT RIVER CLOUDY    38  31  76 E7        30.48R
ST INIGOES     NOT AVBL
LEONARDTOWN*   CLOUDY    37  30  75 CALM      30.50R

$$

MDZ003>005-161500-
NORTH CENTRAL MARYLAND

CITY           SKY/WX    TMP DP  RH WIND       PRES   REMARKS
FREDERICK*     CLOUDY    32  27  80 CALM      30.50R
HAGERSTOWN APT CLOUDY    31  23  72 NW5       30.43R
WESTMINSTER*     N/A     30  23  74 CALM      30.44R

$$

MDZ501>502-161500-
WESTERN MARYLAND

CITY           SKY/WX    TMP DP  RH WIND       PRES   REMARKS
OAKLAND*         N/A     32  32 100 S8        30.29R FOG     WCI  25
CUMBERLAND*    CLOUDY    36  32  87 CALM      30.45R

$$

VAZ025>031-161500-
SHENANDOAH VALLEY

CITY           SKY/WX    TMP DP  RH WIND       PRES   REMARKS
WINCHESTER*    CLOUDY    32  27  80 CALM      30.42S
FRONT ROYAL*   NOT AVBL
LURAY*         CLOUDY    37  30  75 CALM      30.41R
NEW MARKET*    CLOUDY    37  26  62 CALM      30.40R
STAUNTON*      CLOUDY    37  36  93 CALM      30.42R
WAYNESBORO*    CLOUDY    38  37  97 CALM      30.40R

$$

WVZ021-048>050-054>055-161500-
EASTERN WEST VIRGINIA PANHANDLE

CITY           SKY/WX    TMP DP  RH WIND       PRES   REMARKS
MARTINSBURG    CLOUDY    34  24  67 CALM      30.43S
PETERSBURG*    CLOUDY    38  31  76 CALM      30.41R

$$

VAZ036>039-050-161500-
CENTRAL FOOTHILLS

CITY           SKY/WX    TMP DP  RH WIND       PRES   REMARKS
CHARLOTTESVILL CLOUDY    40  37  89 CALM      30.43R FOG
CULPEPER*      CLOUDY    40  34  78 CALM      30.47R
ORANGE*          N/A     39  39 100 CALM      30.47R
GORDONSVILLE*  CLOUDY    39  39 100 CALM      30.44R FOG
WARRENTON*     CLOUDY    41  28  59 CALM      30.45S

$$

VAZ055>057-161500-
NORTH AND CENTRAL PIEDMONT

CITY           SKY/WX    TMP DP  RH WIND       PRES   REMARKS
FREDERICKSBRG* CLOUDY    39  33  78 CALM      30.48R
STAFFORD*      CLOUDY    39  31  74 CALM      30.51R

$$

NCZ024-NYZ072-PAZ021-071-VAZ022-071-161500-
OTHER REGIONAL OBSERVATIONS

CITY           SKY/WX    TMP DP  RH WIND       PRES   REMARKS
NEW YORK CITY  SUNNY     32  20  61 CALM      30.49R
PHILADELPHIA   PTSUNNY   31  21  66 CALM      30.49S
PITTSBURGH     CLOUDY    28  22  78 CALM      30.33S
ROANOKE        CLOUDY    39  37  92 SE6       30.44R
RICHMOND       CLOUDY    38  35  89 CALM      30.47R
RALEIGH        CLOUDY    44  27  51 NE5       30.44R

$$

ANZ530>537-161500-
MARINE OBSERVATIONS

STATION/POSITION TIME  TEMP    WIND        PRES
                       AIR SEA DIR/SP/G
                 (UTC) (F)     (DEG/KT/KT) (MB)
THOMAS PT LIGHT  1300   35 38   50/  4/  4   N/A
BALT KEY BRIDGE  1348   33      80/  3/  4 1032.5R
COVE POINT       1348   36     150/  4/  5 1032.8R
LEWISETTA        1348   39 42   90/  4/  5 1031.7R
SOLOMONS ISLAND  1348   38 40  100/  5/  6   N/A
PINEY POINT      1348          110/  3/  4   N/A

$$





USA.gov is the U.S. government's official web portal to all federal, state and local government web resources and services.